Wind_Speed
14 16 18 19 20 21 21 21 21 21 20 20 20 20 20 20 21 21 22 22 23 25 26 28 29 29 30 32 33 35 37 39 40 41 40 37 36 35 36 38 36 34 34 34 34 34 33 32 31 32 31 31 31 30 29 29 28 27 27 28 31 35 35
15 17 18 19 19 19 20 20 21 21 21 21 20 21 21 21 22 22 23 23 24 26 27 28 29 29 30 31 33 35 37 39 40 40 40 39 37 35 35 35 34 34 34 33 33 33 33 31 30 30 31 31 30 29 28 29 29 28 28 27 30 35 36
15 17 18 19 18 18 18 19 21 21 21 21 21 21 22 22 23 23 23 24 25 26 27 28 29 29 30 31 32 34 36 38 39 40 40 39 36 34 33 32 31 32 32 31 32 32 32 30 29 29 30 31 30 28 28 30 30 29 28 27 27 33 37
16 17 18 18 18 18 18 19 20 21 21 21 22 22 22 23 23 23 23 24 25 26 27 28 28 29 29 30 32 33 35 38 39 40 40 39 35 32 32 30 28 28 28 28 29 30 29 28 27 26 28 30 30 29 28 30 31 30 28 26 25 30 37
16 17 18 18 18 18 19 20 20 21 21 22 23 23 23 23 23 23 24 24 25 26 27 27 28 28 29 30 31 32 34 37 39 39 40 38 33 30 30 29 26 24 23 23 24 26 27 27 26 23 24 27 28 28 29 29 30 29 28 27 25 27 35
16 17 18 18 19 19 20 21 21 21 22 23 24 24 24 24 24 24 24 25 25 26 26 27 28 28 28 29 30 32 33 36 37 38 38 37 32 29 28 27 24 22 20 19 19 21 23 25 24 23 24 26 25 26 28 28 28 28 28 28 26 25 33
15 16 17 18 19 20 21 21 22 22 22 24 25 25 25 25 25 24 24 24 25 25 26 27 28 28 28 28 30 31 32 34 36 36 36 35 31 27 26 24 22 21 19 17 16 17 19 21 22 23 24 25 24 25 26 27 28 28 26 27 26 24 29
15 16 17 18 19 20 21 22 22 22 23 24 25 26 26 26 25 25 24 24 24 25 26 27 28 28 28 29 30 31 32 33 35 36 35 34 31 27 24 22 20 19 18 17 16 16 17 18 20 22 23 24 24 25 26 27 27 26 25 25 26 26 27
15 17 18 19 20 21 22 23 23 23 24 25 26 26 26 26 26 25 25 24 25 25 26 27 28 28 28 29 30 31 31 32 34 35 34 33 32 28 23 20 19 18 17 16 16 15 16 17 19 21 22 23 23 24 25 26 26 26 26 26 27 29 29
17 18 19 20 21 23 23 24 24 24 25 26 26 26 26 26 26 26 25 25 25 25 26 27 28 29 29 29 30 30 31 31 32 33 34 33 32 29 24 20 18 17 17 17 16 16 17 17 18 20 21 22 23 23 24 25 25 25 26 27 28 30 31
18 19 20 21 22 24 24 24 24 24 25 26 26 27 27 26 26 26 25 25 25 26 27 27 28 29 30 30 30 31 31 31 31 31 32 32 31 29 27 23 20 18 17 16 16 16 17 17 17 18 19 21 22 22 23 24 23 22 24 25 24 27 30
20 20 21 22 23 24 25 24 24 24 25 26 27 27 27 27 26 26 26 26 26 26 27 28 28 29 30 30 30 31 31 31 31 30 31 31 30 29 27 26 23 20 18 17 17 16 16 17 16 17 18 19 20 21 22 23 21 19 21 22 20 22 25
21 21 22 23 24 25 26 25 25 25 26 27 27 27 27 27 27 27 26 26 26 27 27 28 28 29 29 30 30 30 30 30 30 30 29 29 30 29 27 25 24 22 20 19 18 17 17 17 18 18 18 17 18 19 20 22 22 20 20 22 21 21 24
22 22 23 24 25 26 27 26 26 26 27 28 28 28 27 27 27 27 27 26 26 27 27 27 28 29 29 29 30 30 30 30 30 29 29 28 29 29 27 25 24 23 21 20 18 18 18 19 19 19 19 18 18 19 20 22 23 22 21 21 21 23 25
23 24 24 25 26 27 28 27 27 28 29 29 28 28 28 27 27 27 27 26 26 27 27 27 28 28 29 29 30 30 30 30 29 28 27 27 27 28 27 26 24 23 23 21 19 17 17 18 19 19 20 20 20 21 21 22 22 21 19 20 22 25 28
25 25 26 26 27 28 29 29 29 29 30 30 29 29 28 28 27 27 27 26 26 27 27 27 27 28 29 29 30 30 29 29 28 27 26 25 25 25 26 25 24 23 23 22 21 19 17 17 18 18 18 19 20 20 21 21 22 21 19 21 25 28 31
26 26 26 27 28 29 30 30 30 30 31 30 30 29 28 28 27 27 26 26 26 27 27 27 27 28 29 29 29 29 29 28 27 27 26 25 24 23 23 24 24 23 23 22 22 20 19 18 18 18 18 17 18 19 19 20 22 23 23 25 27 28 29
27 27 28 29 29 30 31 31 31 31 31 31 30 29 28 28 27 27 26 26 26 27 27 27 28 28 29 29 29 29 29 28 27 26 25 24 23 23 22 22 23 23 22 22 22 21 20 18 17 17 18 18 18 18 19 19 19 21 22 24 25 25 26
28 28 29 30 31 31 31 31 31 32 32 31 30 29 28 27 27 26 26 25 26 26 27 28 28 28 29 29 29 29 29 28 27 26 25 24 23 22 22 22 22 22 22 22 22 22 21 19 18 17 17 18 19 20 19 19 19 19 20 22 23 24 24
29 29 30 31 32 32 31 31 32 32 31 31 30 29 28 27 27 26 26 26 26 27 28 28 29 29 29 29 29 28 28 28 27 26 25 24 23 22 21 21 21 21 21 22 22 23 22 21 20 19 17 17 17 19 20 20 20 20 19 19 20 21 21
29 30 31 32 32 32 32 32 32 31 31 30 29 29 28 27 27 26 26 27 27 28 28 29 29 29 29 29 29 28 28 27 26 26 25 24 24 23 22 22 22 21 21 21 22 22 22 23 23 22 21 19 18 18 18 19 20 20 20 18 18 18 19
31 31 32 32 32 32 32 32 32 31 31 30 30 29 28 27 27 27 27 27 28 28 29 29 29 30 29 29 28 28 27 27 26 26 25 25 24 24 24 23 23 23 22 22 22 22 22 22 23 23 23 23 22 21 20 19 19 20 20 19 17 18 19
32 32 32 32 32 32 32 32 32 31 31 30 30 28 28 27 27 27 28 28 28 28 29 29 29 29 28 28 27 27 27 27 27 26 26 26 26 26 26 26 25 25 25 24 24 24 24 23 23 23 23 24 24 24 23 22 21 21 21 20 19 19 19
32 32 32 31 32 32 32 32 32 32 31 30 29 28 28 28 27 27 27 27 27 27 27 28 27 27 27 27 27 27 27 27 28 28 28 29 29 28 28 28 28 28 27 27 27 27 27 26 26 25 24 24 25 25 25 24 23 22 22 22 21 21 19
32 31 31 31 32 32 32 32 32 32 31 30 29 28 28 27 27 26 26 26 26 26 26 26 26 26 26 27 27 28 28 29 29 30 31 32 32 32 31 31 30 30 30 29 28 28 29 29 29 28 27 26 26 26 27 27 26 25 25 25 26 25 23
31 31 31 31 32 32 32 32 32 31 30 29 28 27 27 26 25 25 24 24 24 24 24 25 26 26 27 28 29 30 31 31 31 32 32 33 34 34 34 34 33 33 32 31 31 30 29 29 30 30 30 29 28 28 28 29 29 28 27 28 29 30 29
31 30 31 31 31 31 32 31 31 30 28 28 27 25 24 23 23 22 22 23 23 24 25 26 27 28 29 30 31 32 32 32 32 32 32 32 33 33 34 34 34 34 34 34 33 33 31 31 30 30 31 31 31 31 31 31 31 31 30 29 30 31 32
30 30 30 30 30 31 31 30 29 28 27 25 24 22 21 21 21 21 22 23 24 25 27 28 29 30 30 31 31 31 31 32 32 32 32 32 32 33 33 34 34 34 35 35 35 35 34 34 33 32 32 32 32 32 33 34 34 34 34 32 31 32 33
28 28 29 29 29 30 29 29 27 26 24 23 21 21 21 21 22 23 24 25 27 28 28 29 29 29 29 30 30 31 31 32 32 33 33 33 33 33 34 34 34 34 35 35 35 36 36 36 35 35 35 35 34 34 34 35 36 36 36 36 35 34 34
27 27 28 28 28 28 28 27 25 24 22 21 21 21 21 22 23 25 26 27 28 28 28 28 28 28 29 30 31 31 32 32 32 32 32 32 32 31 31 31 31 32 32 32 33 34 34 35 35 36 37 37 37 37 36 37 37 38 38 38 38 37 36
26 27 27 27 27 26 26 25 23 22 21 21 21 22 23 24 26 27 27 27 27 27 27 27 28 29 29 30 31 31 31 30 30 29 28 27 27 27 27 27 27 27 28 28 29 29 30 31 32 32 34 35 36 38 38 39 39 40 40 40 40 40 39
25 26 26 25 25 24 24 23 22 21 21 22 22 23 25 26 27 27 27 26 26 26 26 27 28 29 30 30 29 28 28 27 26 25 24 24 24 25 25 25 25 25 25 25 26 27 27 28 29 29 29 30 32 33 35 37 38 40 41 42 43 43 42
25 24 24 23 23 22 22 22 22 21 22 23 24 25 26 27 27 26 26 25 25 25 26 27 28 28 28 27 26 25 24 24 23 23 24 24 25 25 25 25 25 24 25 25 25 25 26 26 27 27 28 28 28 29 30 31 33 35 38 40 43 44 45
23 22 22 22 21 22 22 22 22 22 23 24 25 26 27 27 26 25 24 24 24 25 26 26 26 25 25 24 24 23 23 23 23 24 24 25 25 25 25 25 25 25 25 25 25 25 25 25 26 26 27 27 27 28 28 29 29 30 32 34 37 41 43
21 21 21 21 21 22 23 23 22 22 24 25 26 27 27 26 24 23 22 23 24 25 25 24 23 23 23 23 23 23 23 24 24 24 24 24 24 24 24 24 25 25 25 25 25 25 25 25 26 26 27 27 28 28 29 29 30 30 30 31 32 34 37
20 20 21 22 22 23 23 23 23 23 24 26 27 27 25 24 23 22 21 22 23 23 23 22 22 23 23 23 23 24 24 24 23 23 23 24 24 24 25 25 25 25 26 26 26 26 26 27 27 27 28 28 28 29 29 29 29 30 30 30 31 31 33
19 21 22 23 23 23 24 24 24 24 25 26 26 25 23 22 21 20 21 22 22 22 21 22 22 22 23 23 23 23 23 23 22 23 23 24 24 24 25 25 25 25 26 26 27 27 27 27 27 27 28 28 28 29 29 29 29 29 30 30 30 31 31
Wind_Direction
281 285 291 296 299 302 305 307 307 305 303 301 300 301 303 305 306 306 306 308 311 314 315 317 318 320 320 321 323 326 327 327 327 327 325 320 314 311 309 304 299 293 286 279 271 262 254 254 258 261 261 261 261 259 255 254 255 256 260 260 254 247 241
283 286 290 294 299 304 308 309 308 306 304 301 301 302 304 305 306 307 308 310 312 313 314 314 316 317 319 321 323 326 328 327 328 328 327 322 317 314 312 306 299 293 287 280 272 262 254 250 251 257 260 260 262 262 256 253 253 255 261 265 257 246 240
284 287 291 296 302 308 310 309 307 305 304 304 304 304 305 305 306 307 309 310 311 311 311 311 313 316 319 321 323 325 327 328 329 330 329 325 319 316 314 308 301 295 289 280 270 261 254 250 249 252 256 259 261 261 258 253 252 255 262 270 264 247 239
285 290 294 300 307 312 312 311 309 308 307 306 306 306 305 305 305 306 308 308 308 308 308 310 313 316 319 320 323 325 328 329 331 332 332 328 321 318 316 311 307 302 294 283 270 259 253 250 249 251 255 259 260 261 260 255 253 258 263 271 271 250 238
290 294 299 306 312 315 316 315 313 310 307 305 303 303 304 303 304 305 305 305 305 306 308 311 313 316 318 321 324 327 329 331 332 333 335 332 325 321 319 315 312 308 301 289 272 257 250 250 252 253 256 260 261 261 260 257 256 260 261 267 272 254 239
295 299 304 312 316 317 318 317 314 311 306 303 301 301 301 302 303 304 304 304 305 307 310 311 313 315 319 323 326 329 331 331 332 335 337 335 329 324 322 318 315 312 304 294 278 260 252 253 255 254 256 260 261 260 259 258 259 260 260 267 273 260 243
299 304 310 316 317 317 318 316 314 311 306 303 301 300 300 301 303 304 303 303 305 308 310 312 313 316 320 324 327 330 331 331 332 335 338 339 333 328 327 324 319 314 306 296 283 269 260 260 260 257 257 262 263 261 259 260 262 262 263 269 274 267 251
304 309 312 315 315 315 316 315 313 311 307 304 302 301 301 301 302 302 302 303 305 309 311 312 314 317 321 326 328 330 331 331 333 335 339 342 338 330 329 329 325 318 310 300 289 278 268 264 262 260 260 264 265 262 260 260 262 264 266 269 271 270 262
306 308 309 310 312 313 313 313 312 311 309 306 304 303 302 302 301 302 302 304 306 308 311 312 314 318 322 326 328 331 331 332 333 335 337 342 342 337 332 329 327 323 316 307 296 287 276 267 262 262 263 266 265 261 260 260 263 265 265 267 268 267 264
302 303 304 307 309 310 310 310 310 311 310 309 307 306 304 303 302 303 304 305 307 308 310 312 314 317 321 325 328 330 331 331 332 334 335 339 343 343 337 330 327 325 319 312 304 293 283 274 267 265 266 267 265 262 261 261 265 267 265 268 270 262 257
297 299 301 304 306 307 308 308 309 310 310 309 308 307 306 305 305 306 306 307 307 308 309 311 313 317 320 323 327 329 330 331 332 333 334 336 340 343 341 335 330 325 319 312 306 298 289 283 277 274 271 270 267 266 266 266 268 270 270 275 275 259 250
294 296 300 303 305 307 308 309 309 311 311 309 308 308 308 308 308 309 309 309 308 308 309 310 312 316 319 322 326 327 328 330 331 332 332 333 336 340 341 339 334 328 322 315 309 303 297 290 284 279 274 271 270 271 272 271 271 273 275 279 276 259 250
291 296 300 304 306 307 309 311 312 312 311 310 309 309 310 310 311 311 310 310 309 309 309 310 312 315 318 321 323 325 327 328 329 330 330 331 332 334 338 340 336 331 326 321 315 309 303 297 288 281 276 274 273 274 276 274 273 276 277 278 273 261 254
292 296 301 304 306 308 311 314 315 314 312 311 311 311 311 312 312 312 312 311 310 310 310 311 313 315 317 319 321 323 325 326 327 328 328 328 328 330 333 336 337 334 328 324 320 314 308 303 295 285 278 276 274 273 275 275 276 275 272 273 271 264 257
292 297 301 304 306 308 311 313 315 315 314 313 312 312 312 313 313 313 313 312 311 311 312 313 313 315 316 318 320 322 324 325 325 325 325 325 325 325 328 331 335 335 331 327 323 319 314 310 306 293 279 275 276 277 277 278 279 277 269 267 268 265 260
291 295 299 303 305 308 309 311 313 314 314 313 313 312 312 313 313 313 313 313 313 313 314 314 314 315 317 318 319 321 322 323 323 322 321 321 320 321 323 326 329 332 331 329 325 322 320 318 316 306 287 276 275 279 281 279 278 276 268 265 266 266 262
290 294 298 301 304 306 308 309 311 313 314 314 312 312 312 312 312 313 313 314 315 315 316 316 317 317 318 319 320 320 321 321 320 319 318 317 317 317 318 320 324 326 327 328 326 324 321 318 318 314 303 289 280 280 283 281 278 272 266 265 269 272 269
290 293 297 300 302 304 306 308 310 312 313 313 312 311 311 311 311 312 313 314 315 316 317 318 318 319 319 320 320 320 320 319 318 317 316 315 314 314 314 315 318 320 322 324 324 323 321 318 316 313 310 304 296 291 288 287 284 279 274 272 272 274 275
288 292 295 298 301 304 306 307 309 311 313 312 311 310 310 310 311 312 313 314 315 316 317 318 318 318 319 319 319 319 318 317 317 316 314 313 311 311 311 311 312 314 317 319 321 321 320 318 315 311 308 306 303 300 297 293 291 289 286 281 276 274 274
286 289 293 296 300 303 305 306 308 311 312 312 310 309 309 310 310 312 313 315 316 317 317 318 318 317 317 317 317 317 316 316 315 314 313 312 310 309 309 309 309 310 312 314 316 318 318 318 315 312 309 305 302 301 301 299 296 293 291 289 284 281 278
284 287 292 295 300 303 304 306 308 310 311 311 310 309 309 309 310 312 314 315 316 317 317 317 316 316 316 316 316 315 315 314 313 312 311 311 310 309 308 307 307 307 308 308 310 312 314 315 315 313 311 307 302 300 298 299 298 294 291 290 288 285 284
282 286 291 296 300 303 304 306 308 310 311 310 309 308 308 309 311 312 313 314 315 315 316 315 315 315 315 315 315 315 315 314 313 312 311 311 310 310 309 308 307 306 306 305 304 304 306 308 309 309 310 308 305 302 299 297 297 294 291 288 284 282 284
281 286 291 296 300 302 304 306 308 310 310 309 308 308 308 309 311 312 313 313 314 314 314 314 315 315 315 316 316 316 315 315 314 313 312 311 311 311 310 309 308 307 306 305 303 302 301 301 301 302 303 304 303 302 300 297 294 291 289 285 281 278 280
281 286 292 297 300 302 303 306 308 309 309 308 307 308 309 310 310 311 312 312 313 314 314 315 316 316 317 317 316 316 315 315 314 313 312 311 310 310 309 308 307 306 305 303 302 301 300 298 297 296 295 296 298 298 297 296 293 289 285 279 274 270 268
282 287 293 298 300 301 304 306 308 308 308 307 307 308 308 309 310 310 311 312 313 314 315 316 317 317 317 316 315 315 314 313 312 311 310 310 309 308 307 306 304 303 302 301 299 298 297 296 295 293 292 290 291 292 292 292 291 289 284 278 273 269 263
282 288 295 298 299 301 304 307 308 308 307 307 307 308 308 309 310 311 312 313 315 316 316 317 317 316 315 314 313 312 311 310 309 309 308 307 307 306 306 305 304 303 302 300 299 297 295 293 292 290 289 287 286 285 285 286 287 286 284 280 276 273 270
283 290 295 296 298 301 305 307 307 307 307 307 308 309 310 311 313 313 314 315 316 317 316 316 315 314 312 311 311 310 309 309 308 307 307 306 306 305 305 304 304 303 302 300 299 297 295 292 290 288 287 285 284 282 281 281 282 282 281 279 277 274 271
284 290 293 295 298 302 305 306 306 306 307 308 310 311 313 314 314 315 316 316 316 316 315 314 313 312 311 311 311 310 310 310 309 308 307 306 305 304 303 303 302 301 300 299 298 297 295 292 290 287 285 283 281 280 280 280 280 280 280 279 278 274 270
285 290 292 295 299 302 304 305 305 306 307 309 310 311 313 314 316 317 317 316 316 314 313 313 313 313 313 312 312 312 312 311 310 309 308 307 306 305 304 303 302 300 299 298 296 295 294 292 290 288 286 283 280 278 276 277 278 279 279 279 278 276 273
286 290 292 295 298 301 303 303 304 305 306 307 308 311 314 316 317 317 316 315 314 314 314 314 314 315 315 314 314 313 312 311 310 310 310 309 309 308 308 307 307 306 305 303 301 299 297 295 293 290 288 285 283 280 277 275 274 275 276 276 276 276 274
286 289 292 295 297 299 300 301 301 303 305 307 309 312 315 317 317 316 315 314 314 314 315 316 316 315 315 314 314 314 313 313 313 313 313 314 315 315 316 316 315 315 314 313 312 311 308 306 303 300 296 293 289 286 282 278 275 274 274 274 274 273 273
285 288 290 293 295 296 297 298 299 302 305 308 311 314 316 316 315 314 314 314 315 315 316 316 316 316 316 316 316 317 317 316 317 317 319 320 321 321 320 320 319 319 319 320 319 319 319 318 316 314 311 307 303 299 294 289 284 280 277 275 274 274 273
283 286 288 291 293 294 296 298 299 302 306 310 312 315 316 315 314 314 314 314 315 316 317 317 318 318 319 319 319 319 319 319 320 322 323 323 322 321 321 321 321 322 322 322 322 321 321 320 319 318 318 317 315 311 308 303 298 293 287 282 279 277 276
279 283 287 290 291 293 296 299 300 302 307 310 313 315 315 314 313 312 313 314 317 318 319 319 320 320 321 321 321 320 320 321 322 322 322 322 322 322 323 324 324 324 324 324 324 323 322 320 319 318 318 317 317 316 314 313 311 307 301 295 289 283 280
278 283 287 289 290 292 297 300 300 302 307 310 313 314 313 311 310 311 313 317 319 320 321 321 321 322 322 322 321 322 321 322 321 321 321 323 324 325 326 326 326 326 326 325 325 325 325 324 323 322 321 320 319 318 317 315 314 313 311 307 302 295 288
279 285 287 288 288 291 296 299 300 302 306 310 312 312 310 309 309 312 316 319 320 321 321 322 323 323 324 324 325 325 324 323 323 323 325 327 328 328 328 329 328 328 327 327 327 327 327 327 326 326 325 323 322 320 319 318 316 315 314 313 310 306 301
282 285 287 287 287 290 295 298 299 301 305 309 310 309 307 307 310 314 317 319 320 321 322 323 325 326 327 329 329 327 326 326 326 329 330 331 331 332 331 331 331 331 331 330 330 329 328 328 327 327 326 325 325 325 324 323 322 320 319 318 316 314 310
Height
5829 5829 5828 5828 5827 5827 5826 5825 5824 5824 5823 5822 5821 5820 5819 5818 5817 5815 5814 5813 5811 5809 5808 5806 5804 5802 5800 5798 5795 5793 5790 5787 5784 5780 5777 5773 5770 5767 5764 5760 5757 5754 5753 5753 5753 5754 5756 5757 5758 5758 5759 5760 5760 5762 5764 5765 5765 5766 5767 5768 5768 5769 5770
5828 5827 5827 5827 5826 5825 5824 5823 5822 5821 5821 5820 5819 5818 5817 5815 5814 5813 5811 5810 5808 5807 5805 5804 5802 5800 5798 5795 5792 5790 5787 5784 5781 5777 5773 5769 5766 5762 5759 5756 5753 5750 5748 5748 5748 5748 5750 5753 5754 5755 5755 5755 5757 5759 5760 5760 5761 5762 5763 5763 5764 5764 5766
5826 5825 5825 5825 5824 5824 5822 5821 5820 5819 5819 5818 5817 5816 5814 5813 5812 5810 5809 5808 5806 5805 5803 5802 5800 5798 5795 5793 5790 5787 5784 5781 5777 5774 5770 5765 5762 5758 5755 5752 5749 5747 5745 5744 5743 5743 5745 5748 5750 5751 5751 5752 5753 5755 5756 5756 5757 5759 5759 5759 5759 5759 5761
5824 5824 5823 5823 5822 5821 5820 5819 5818 5818 5817 5815 5814 5813 5812 5811 5810 5808 5807 5806 5805 5803 5802 5800 5798 5796 5793 5790 5788 5785 5782 5778 5774 5770 5766 5762 5759 5755 5752 5748 5746 5743 5741 5740 5739 5739 5741 5744 5746 5748 5749 5749 5750 5752 5752 5752 5753 5754 5755 5755 5755 5755 5756
5821 5821 5821 5820 5820 5819 5818 5817 5816 5816 5815 5814 5812 5811 5810 5809 5808 5807 5805 5804 5803 5801 5799 5797 5795 5793 5791 5788 5785 5782 5779 5775 5771 5767 5763 5759 5756 5753 5749 5745 5743 5740 5738 5737 5736 5736 5738 5740 5743 5746 5746 5746 5747 5748 5748 5749 5750 5751 5751 5751 5751 5751 5753
5819 5819 5819 5818 5817 5817 5816 5815 5815 5814 5813 5812 5810 5809 5808 5807 5806 5804 5803 5802 5800 5798 5796 5794 5793 5791 5788 5785 5782 5779 5776 5773 5769 5765 5761 5757 5753 5750 5747 5743 5741 5738 5737 5735 5735 5735 5737 5738 5740 5742 5743 5743 5744 5745 5745 5745 5746 5747 5748 5748 5747 5748 5749
5817 5817 5817 5816 5816 5815 5815 5814 5813 5812 5811 5809 5808 5807 5806 5805 5803 5802 5801 5799 5797 5796 5794 5792 5790 5788 5785 5783 5780 5777 5774 5771 5767 5764 5760 5755 5751 5748 5745 5742 5740 5737 5736 5735 5734 5735 5736 5737 5738 5739 5740 5740 5741 5742 5742 5742 5743 5744 5745 5744 5743 5744 5745
5816 5815 5815 5815 5814 5813 5813 5812 5811 5810 5809 5808 5806 5805 5804 5802 5801 5800 5798 5797 5795 5793 5791 5789 5787 5785 5783 5780 5777 5775 5772 5769 5765 5762 5758 5754 5750 5747 5744 5741 5739 5737 5735 5734 5734 5734 5734 5735 5735 5736 5736 5737 5738 5738 5739 5739 5739 5740 5741 5740 5739 5740 5742
5814 5814 5813 5813 5812 5812 5811 5811 5810 5808 5807 5806 5805 5803 5802 5800 5799 5797 5795 5794 5792 5790 5788 5786 5784 5782 5780 5778 5775 5772 5770 5767 5764 5760 5756 5753 5749 5746 5743 5741 5738 5736 5735 5734 5733 5732 5733 5733 5733 5733 5734 5734 5734 5735 5736 5736 5736 5737 5737 5737 5736 5737 5738
5812 5812 5811 5811 5811 5810 5810 5809 5808 5806 5805 5804 5802 5801 5799 5798 5796 5794 5792 5790 5789 5787 5785 5783 5781 5779 5777 5775 5773 5770 5768 5765 5762 5758 5755 5751 5748 5745 5742 5740 5738 5736 5734 5733 5732 5731 5731 5731 5731 5731 5731 5731 5731 5732 5733 5733 5733 5734 5734 5733 5733 5733 5734
5810 5810 5809 5809 5809 5808 5807 5807 5805 5804 5803 5801 5800 5798 5796 5795 5793 5791 5789 5787 5786 5784 5782 5780 5778 5776 5774 5772 5770 5768 5766 5763 5760 5757 5754 5750 5747 5744 5741 5739 5736 5735 5733 5732 5731 5730 5730 5729 5729 5728 5728 5728 5728 5729 5729 5730 5731 5731 5731 5730 5729 5729 5730
5808 5808 5807 5807 5806 5806 5805 5804 5803 5802 5800 5799 5797 5795 5794 5792 5790 5788 5786 5784 5783 5781 5779 5777 5776 5774 5772 5770 5768 5766 5763 5761 5758 5755 5752 5749 5746 5743 5741 5738 5735 5733 5732 5731 5730 5729 5728 5728 5727 5726 5726 5725 5725 5726 5726 5727 5728 5728 5727 5726 5726 5726 5727
5805 5805 5805 5804 5804 5803 5802 5801 5800 5799 5798 5796 5794 5793 5790 5788 5786 5785 5783 5781 5780 5778 5776 5775 5773 5771 5769 5767 5765 5763 5761 5758 5756 5754 5751 5748 5745 5742 5739 5737 5735 5732 5730 5729 5728 5727 5726 5726 5725 5724 5723 5723 5723 5723 5723 5723 5724 5725 5724 5723 5724 5724 5725
5803 5803 5802 5802 5801 5800 5799 5798 5797 5796 5794 5793 5791 5789 5787 5785 5784 5782 5780 5779 5777 5775 5774 5772 5770 5768 5767 5765 5763 5761 5758 5756 5754 5751 5749 5746 5744 5741 5738 5736 5734 5732 5729 5727 5726 5725 5724 5723 5722 5721 5721 5721 5720 5720 5720 5720 5720 5721 5721 5721 5721 5721 5722
5800 5800 5799 5799 5798 5797 5796 5795 5794 5793 5791 5790 5788 5786 5784 5782 5781 5779 5777 5776 5774 5772 5771 5769 5767 5766 5764 5762 5760 5758 5756 5754 5751 5749 5747 5744 5742 5739 5737 5734 5732 5730 5728 5726 5724 5723 5722 5721 5720 5719 5718 5718 5718 5717 5717 5717 5717 5717 5718 5718 5718 5718 5719
5798 5797 5797 5796 5795 5794 5793 5792 5791 5789 5788 5786 5785 5783 5781 5779 5778 5776 5775 5773 5771 5770 5768 5767 5765 5763 5761 5759 5757 5755 5753 5751 5749 5747 5745 5743 5740 5738 5736 5733 5731 5729 5726 5725 5723 5721 5720 5718 5717 5717 5716 5715 5715 5714 5714 5713 5713 5714 5714 5715 5714 5714 5715
5795 5794 5794 5793 5792 5792 5790 5789 5788 5786 5785 5783 5781 5780 5778 5777 5775 5773 5772 5770 5768 5767 5765 5764 5762 5760 5758 5756 5754 5752 5750 5748 5747 5745 5743 5741 5739 5736 5734 5732 5730 5727 5725 5723 5722 5720 5718 5716 5715 5714 5713 5713 5712 5712 5711 5711 5710 5710 5710 5710 5710 5710 5710
5792 5791 5791 5790 5789 5789 5787 5786 5785 5783 5782 5780 5778 5777 5775 5774 5772 5771 5769 5767 5766 5764 5762 5760 5759 5757 5755 5753 5751 5749 5747 5745 5744 5742 5740 5738 5736 5734 5732 5730 5728 5726 5724 5722 5720 5719 5717 5715 5714 5712 5711 5711 5710 5709 5708 5708 5707 5706 5706 5706 5705 5705 5705
5789 5788 5788 5787 5786 5785 5784 5783 5781 5780 5779 5777 5775 5774 5773 5771 5770 5768 5766 5765 5763 5761 5759 5757 5756 5754 5752 5750 5748 5746 5744 5742 5741 5739 5737 5735 5734 5732 5730 5728 5727 5725 5723 5721 5719 5717 5716 5714 5712 5711 5710 5709 5708 5707 5706 5705 5704 5703 5703 5702 5701 5701 5701
5786 5785 5785 5784 5783 5782 5781 5780 5778 5777 5775 5774 5773 5771 5770 5768 5767 5765 5763 5762 5760 5758 5756 5754 5753 5751 5749 5747 5745 5743 5741 5740 5738 5736 5734 5732 5731 5729 5727 5726 5724 5722 5721 5719 5717 5715 5713 5712 5710 5709 5707 5706 5705 5704 5704 5703 5701 5700 5700 5699 5697 5697 5697
5782 5782 5781 5781 5780 5779 5778 5777 5775 5774 5773 5771 5770 5768 5767 5765 5764 5762 5760 5758 5757 5755 5753 5751 5749 5747 5746 5744 5742 5740 5738 5736 5735 5733 5731 5729 5728 5726 5724 5723 5721 5720 5718 5717 5715 5713 5711 5709 5708 5706 5705 5704 5702 5701 5701 5700 5699 5697 5696 5696 5695 5694 5693
5779 5779 5778 5778 5777 5776 5775 5773 5772 5771 5770 5768 5767 5766 5764 5762 5761 5759 5757 5755 5753 5752 5750 5748 5746 5744 5742 5740 5738 5737 5735 5733 5732 5730 5728 5726 5725 5723 5721 5720 5718 5717 5715 5714 5712 5711 5709 5707 5706 5704 5702 5701 5700 5698 5698 5697 5696 5695 5694 5693 5692 5692 5691
5776 5776 5775 5775 5774 5773 5771 5770 5769 5768 5767 5765 5764 5763 5761 5759 5757 5756 5754 5752 5750 5748 5746 5744 5742 5741 5739 5737 5735 5734 5732 5730 5728 5727 5725 5723 5722 5720 5718 5716 5715 5713 5712 5711 5709 5707 5706 5705 5703 5701 5700 5698 5697 5696 5695 5694 5694 5693 5691 5691 5690 5689 5688
5773 5773 5772 5771 5770 5769 5768 5767 5766 5765 5763 5762 5761 5759 5758 5756 5754 5752 5750 5749 5747 5745 5743 5741 5739 5738 5736 5734 5732 5731 5729 5727 5725 5723 5721 5720 5718 5716 5715 5713 5711 5709 5708 5707 5705 5704 5702 5701 5699 5698 5697 5696 5694 5693 5692 5691 5690 5690 5689 5688 5687 5687 5686
5770 5769 5769 5768 5767 5766 5765 5764 5763 5761 5760 5759 5758 5756 5754 5753 5751 5749 5747 5745 5744 5742 5740 5739 5737 5735 5733 5731 5730 5728 5726 5724 5722 5720 5718 5716 5714 5712 5710 5709 5707 5705 5704 5702 5701 5699 5698 5696 5695 5694 5693 5692 5691 5690 5689 5687 5686 5686 5685 5685 5684 5683 5683
5766 5766 5766 5765 5764 5763 5762 5760 5759 5758 5757 5756 5754 5753 5751 5749 5747 5746 5744 5743 5741 5739 5738 5736 5734 5732 5730 5728 5726 5725 5723 5721 5719 5717 5715 5712 5710 5708 5706 5704 5702 5700 5699 5697 5696 5695 5693 5692 5691 5689 5688 5687 5687 5686 5685 5684 5683 5682 5681 5680 5680 5679 5678
5763 5763 5763 5762 5761 5760 5759 5757 5756 5755 5754 5752 5751 5749 5747 5746 5744 5743 5741 5740 5738 5737 5735 5733 5731 5729 5727 5725 5723 5721 5719 5717 5715 5713 5711 5709 5706 5704 5702 5700 5698 5696 5694 5692 5690 5689 5688 5687 5686 5685 5684 5683 5682 5681 5680 5679 5679 5678 5677 5676 5676 5675 5674
5760 5760 5759 5759 5758 5757 5756 5755 5753 5752 5751 5749 5748 5746 5745 5743 5742 5740 5739 5737 5735 5734 5732 5730 5728 5726 5724 5722 5720 5718 5716 5714 5711 5709 5707 5705 5703 5701 5698 5696 5694 5692 5690 5688 5686 5684 5683 5682 5680 5679 5678 5677 5677 5676 5675 5674 5674 5673 5672 5672 5671 5670 5669
5757 5757 5756 5755 5755 5754 5753 5752 5750 5749 5748 5746 5745 5744 5742 5741 5739 5737 5736 5734 5732 5730 5729 5727 5725 5723 5721 5719 5717 5715 5713 5710 5708 5705 5703 5701 5699 5696 5694 5692 5690 5688 5686 5684 5682 5680 5678 5677 5675 5674 5673 5672 5671 5671 5670 5670 5669 5668 5667 5666 5666 5665 5664
5754 5754 5753 5752 5752 5751 5750 5749 5748 5746 5745 5744 5743 5741 5739 5738 5736 5734 5733 5731 5729 5727 5725 5723 5721 5719 5717 5715 5713 5711 5709 5707 5704 5702 5699 5697 5695 5692 5690 5688 5686 5684 5682 5680 5678 5676 5674 5672 5671 5669 5668 5666 5665 5665 5665 5664 5663 5662 5662 5661 5660 5660 5659
5751 5750 5750 5749 5749 5748 5747 5746 5745 5744 5743 5741 5740 5738 5737 5735 5733 5731 5729 5727 5726 5724 5722 5720 5718 5716 5714 5712 5710 5708 5706 5703 5701 5699 5696 5694 5692 5690 5687 5685 5683 5681 5679 5676 5674 5672 5670 5668 5666 5665 5663 5662 5660 5659 5659 5658 5657 5657 5656 5655 5654 5654 5654
5747 5747 5747 5746 5746 5745 5744 5743 5742 5741 5740 5738 5737 5735 5734 5732 5730 5728 5726 5724 5723 5721 5719 5717 5715 5713 5711 5709 5707 5705 5703 5700 5698 5696 5694 5692 5689 5687 5685 5683 5681 5678 5676 5674 5672 5670 5667 5665 5663 5661 5660 5658 5656 5655 5653 5652 5651 5651 5650 5649 5648 5648 5647
5744 5744 5744 5743 5743 5742 5741 5740 5739 5738 5737 5735 5734 5732 5730 5729 5727 5725 5723 5722 5720 5718 5716 5714 5712 5710 5708 5706 5704 5702 5700 5698 5696 5693 5691 5689 5687 5685 5682 5680 5678 5676 5674 5672 5670 5668 5666 5663 5661 5659 5657 5655 5653 5651 5650 5648 5647 5645 5644 5643 5642 5642 5641
5740 5741 5740 5740 5739 5739 5738 5737 5736 5735 5734 5732 5731 5729 5727 5726 5724 5722 5720 5719 5717 5715 5713 5711 5709 5707 5705 5703 5701 5699 5698 5696 5693 5691 5689 5687 5684 5682 5680 5678 5675 5673 5671 5669 5667 5665 5663 5661 5659 5657 5655 5653 5651 5649 5647 5645 5643 5641 5640 5638 5637 5636 5635
5737 5737 5737 5737 5736 5735 5734 5734 5733 5732 5730 5729 5728 5726 5725 5723 5721 5719 5718 5716 5714 5712 5710 5708 5706 5704 5702 5701 5699 5697 5695 5693 5691 5689 5687 5685 5682 5680 5678 5675 5673 5671 5669 5667 5664 5662 5660 5658 5656 5654 5652 5650 5647 5645 5644 5642 5640 5638 5636 5634 5632 5630 5629
5734 5734 5734 5733 5732 5732 5731 5730 5729 5729 5727 5726 5725 5723 5722 5720 5718 5716 5715 5713 5711 5709 5707 5706 5704 5702 5700 5698 5696 5695 5693 5691 5689 5687 5684 5682 5680 5678 5675 5673 5671 5669 5666 5664 5662 5660 5657 5655 5653 5651 5649 5646 5644 5642 5640 5638 5637 5635 5632 5630 5628 5626 5624
5731 5731 5730 5730 5729 5729 5728 5727 5726 5725 5724 5723 5722 5721 5719 5717 5715 5714 5712 5710 5709 5707 5705 5703 5701 5700 5698 5696 5694 5692 5690 5688 5686 5684 5682 5680 5678 5676 5673 5671 5669 5666 5664 5662 5659 5657 5655 5653 5651 5648 5646 5644 5641 5639 5637 5635 5633 5631 5629 5627 5625 5622 5620